• Join FlightAware (Why Join?)
  • Login
  • US Flag 
02:33AM EST


 

Airport Tracker/Info


-or-


 

Live Flight TrackerFlight Track Log ✈ N48KZ ✈ 23-Apr-2013 ✈ KMRY - KLGB

Flight Track Log - Related Links

Times and Time Zones

All times are in EDT time to prevent confusion due to time zone crossing. See the N48KZ flight status page for this flight to view local times or setup timezone preferences in your user account.

Time Position Orientation Groundspeed Altitude Reporting Facility
EDT Latitude Longitude Course Direction KTS MPH feet Rate Location/Type
07:03PM 36.6500 -121.8667 141° Southeast 230 265 5,600  Level Northern Cal TRACON
07:04PM 36.6333 -121.7833 104° East 267 307 9,000 2,150 Climbing Northern Cal TRACON
07:05PM 36.6167 -121.7000 104° East 298 343 9,900 2,450 Climbing Northern Cal TRACON
07:06PM 36.5500 -121.6167 135° Southeast 312 359 13,900 3,411 Climbing Northern Cal TRACON
07:06PM 36.5211 -121.5908 144° Southeast 313 360 15,300 2,938 Climbing Oakland Center
07:08PM 36.2832 -121.1666 141° Southeast  Level FlightAware Approximate
07:08PM 36.4544 -121.5072 135° Southeast 341 392 18,600  Level Oakland Center
07:09PM 36.3617 -121.3919 135° Southeast 394 453 20,300 1,180 Climbing Oakland Center
07:10PM 36.2781 -121.2892 135° Southeast 420 483 21,000 1,268 Climbing Oakland Center
07:11PM 36.1925 -121.1847 135° Southeast 432 497 22,900 1,610 Climbing Oakland Center
07:12PM 36.1031 -121.0769 136° Southeast 448 516 24,300 1,869 Climbing Oakland Center
07:13PM 36.0131 -120.9664 135° Southeast 454 522 26,700 2,244 Climbing Oakland Center
07:14PM 35.9228 -120.8556 135° Southeast 457 526 28,900 1,122 Climbing Oakland Center
07:15PM 35.8283 -120.7403 135° Southeast 475 547 29,000 49 Climbing Oakland Center
07:16PM 35.7317 -120.6250 136° Southeast 481 554 29,000  Level Oakland Center
07:17PM 35.6369 -120.5103 135° Southeast 478 550 29,000  Level Oakland Center
07:18PM 35.5406 -120.3964 136° Southeast 477 549 29,000  Level Oakland Center
07:19PM 35.4422 -120.2797 136° Southeast 479 551 29,000  Level Oakland Center
07:20PM 35.3439 -120.1594 135° Southeast 483 556 29,000  Level Oakland Center
07:20PM 35.3058 -120.1144 136° Southeast 480 552 29,000  Level Los Angeles Center
07:21PM 35.2100 -120.0017 136° Southeast 478 550 29,000  Level Los Angeles Center
07:22PM 35.1136 -119.8886 136° Southeast 480 552 29,000  Level Los Angeles Center
07:23PM 35.0150 -119.7803 138° Southeast 477 549 29,000  Level Los Angeles Center
07:24PM 34.9133 -119.6739 139° Southeast 481 554 29,000  Level Los Angeles Center
07:25PM 34.7933 -119.5464 139° Southeast 478 550 29,000 -774 Level Los Angeles Center
07:26PM 34.6911 -119.4400 139° Southeast 483 556 27,400 -1,645 Descending Los Angeles Center
07:27PM 34.5933 -119.3394 140° Southeast 482 555 25,600 -1,790 Descending Los Angeles Center
07:28PM 34.4936 -119.2361 139° Southeast 475 547 23,700 -1,839 Descending Los Angeles Center
07:29PM 34.3817 -119.1192 139° Southeast 443 510 21,800 -1,597 Descending Los Angeles Center
07:30PM 34.2997 -119.0317 139° Southeast 390 449 20,400 -1,344 Descending Los Angeles Center
07:31PM 34.2186 -118.9478 139° Southeast 382 440 19,000 -1,392 Descending Los Angeles Center
07:32PM 34.1383 -118.8661 140° Southeast 377 434 17,500 -1,403 Descending Los Angeles Center
07:34PM 34.0536 -118.7783 139° Southeast 361 415 16,100 -1,403 Descending Los Angeles Center
07:35PM 33.9558 -118.7339 159° South 350 403 14,600 -968 Descending Los Angeles Center
07:36PM 33.8650 -118.7014 163° South 343 395 14,100 -290 Descending Los Angeles Center
07:37PM 33.7739 -118.6689 163° South 346 398 14,000 -387 Descending Los Angeles Center
07:38PM 33.6822 -118.6361 163° South 347 399 13,300 -1,355 Descending Los Angeles Center
07:39PM 33.5956 -118.6047 163° South 331 381 11,200 -2,081 Descending Los Angeles Center
07:40PM 33.5375 -118.5083 126° Southeast 305 351 9,000 -2,129 Descending Los Angeles Center
07:41PM 33.5050 -118.4261 115° Southeast 291 335 6,800 -2,032 Descending Los Angeles Center
07:42PM 33.5289 -118.3425 71° East 275 316 4,800 -1,935 Descending Los Angeles Center
07:43PM 33.5536 -118.2619 70° East 267 307 2,800 -1,355 Descending Los Angeles Center
07:44PM 33.5739 -118.1831 73° East 259 298 2,000 -432 Descending Los Angeles Center
07:45PM 33.6169 -118.1147 53° Northeast 236 272 1,900  Descending Los Angeles Center
07:46PM 33.6667 -118.0667 39° Northeast 209 241 2,000 49 Climbing Southern California TRACON
07:47PM 33.7167 -118.0333 29° Northeast 170 196 2,000 -47 Level Southern California TRACON
07:48PM 33.7500 -118.0667 320° Northwest 149 171 1,900 -381 Descending Southern California TRACON
07:49PM 33.7667 -118.1000 301° West 138 159 1,200 -787 Descending Southern California TRACON
07:50PM 33.8014 -118.1303 324° Northwest 143 165 300 -871 Descending Los Angeles Center
07:52PM 33.8167 -118.1500 292° West  Level FlightAware Approximate
07:59PM 33.8177 -118.1517 292° West  Level Estimated